パンスターズ彗星

C/2015 V1 ( PanSTARRS )

English version
Home page
Updated on November 23, 2017

---------------------------------------------------------------------

・ プロフィール

発見日 2015年11月2日
発見光度 20.2等
発見者 Pan-STARRS 1 telescope (Haleakala)

・ 写真集

・ 軌道要素

Epoch 2018 Jan. 2.0 TT = JDT 2458120.5
T 2017 Dec. 17.73408 TT                                 MPCW
q   4.2668081            (2000.0)            P               Q
z  -0.0001246      Peri.  179.63868     +0.95387796     +0.22989335
 +/-0.0000003      Node   197.19411     +0.27375920     -0.40230046
e   1.0005315      Incl.  139.22916     +0.12317764     -0.88617345
From 1419 observations 2015 Nov. 2-2017 Oct. 31, mean residual 0".4.

・ 星図

・ 光度変化

        m1 = 6.0 + 5 logΔ + 10.0 log r

---------------------------------------------------------------------

軌道要素はM.P.E.C. 2017-V13に掲載されたものです。
星図はステラナビゲータ Ver.8 (アストロアーツ) で作成したものです。
光度グラフはComet for Windowsで作成したものです。

---------------------------------------------------------------------

Copyright(C) Seiichi Yoshida (comet@aerith.net). All rights reserved.